Location: Czekanka
(50.4925°N, 19.2643°E)
Time: 16:53:00
(UTC+00:00)

Cosmos 1934 Rocket - Visible Passes

Search period start: 08 September 2024 00:00
Search period end: 18 September 2024 00:00
Orbit: 937 x 999 km, 83.0° (Epoch: 07 September)

Date Brightness Start Highest point End Pass type
(mag) Time Alt. Az. Time Alt. Az. Time Alt. Az.
08 Sep 6.0 01:29:00 10° N 01:34:20 28° ENE 01:39:40 10° ESE visible
08 Sep 4.1 03:13:50 10° NNW 03:20:01 62° W 03:26:14 10° S visible
09 Sep 5.2 01:51:51 10° N 01:57:48 43° ENE 02:03:47 10° SE visible
09 Sep 4.5 03:37:15 10° NNW 03:42:59 39° W 03:48:46 10° SSW visible
10 Sep 6.7 00:31:11 10° NNE 00:34:37 15° NE 00:38:03 10° E visible
10 Sep 4.4 02:14:51 10° N 02:21:08 68° ENE 02:27:27 10° SSE visible
10 Sep 6.8 17:37:11 10° W 17:41:00 17° WNW 17:44:52 10° NNW visible
11 Sep 6.2 00:53:29 10° N 00:58:21 23° ENE 01:03:14 10° ESE visible
11 Sep 4.0 02:38:01 10° NNW 02:44:19 78° W 02:50:39 10° S visible
11 Sep 7.3 18:03:33 10° WNW 18:04:52 11° NW 18:06:10 10° NW visible
12 Sep 5.5 01:16:13 10° N 01:21:55 35° ENE 01:27:39 10° SE visible
12 Sep 4.2 03:01:20 10° NNW 03:07:22 49° W 03:13:25 10° SSW visible
12 Sep 6.8 23:56:15 10° NNE 23:58:31 12° NE 00:00:47 10° ENE visible
13 Sep 4.7 01:39:09 10° N 01:45:20 54° ENE 01:51:32 10° SSE visible
13 Sep 4.8 03:24:51 10° NNW 03:30:16 31° W 03:35:42 10° SW visible
14 Sep 6.4 00:18:04 10° NNE 00:22:21 19° ENE 00:26:38 10° ESE visible
14 Sep 4.0 02:02:14 10° N 02:08:35 84° ENE 02:14:57 10° S visible
14 Sep 6.9 17:25:46 10° W 17:28:43 14° NW 17:31:42 10° NNW visible
15 Sep 5.8 00:40:38 10° N 00:46:00 28° ENE 00:51:22 10° ESE visible
15 Sep 4.0 02:25:28 10° NNW 02:31:42 63° W 02:37:57 10° S visible
16 Sep 5.1 01:03:28 10° N 01:09:29 43° ENE 01:15:30 10° SE visible
16 Sep 4.5 02:48:53 10° NNW 02:54:40 39° W 03:00:29 10° SSW visible
16 Sep 6.6 23:42:48 10° NNE 23:46:17 15° NE 23:49:47 10° E visible
17 Sep 4.3 01:26:29 10° N 01:32:49 68° ENE 01:39:09 10° SSE visible
17 Sep 5.0 03:12:32 10° NNW 03:17:30 25° W 03:22:29 10° SW visible
